TimeEST,TemperatureF,Dew PointF,Humidity,Sea Level PressureIn,VisibilityMPH,Wind Direction,Wind SpeedMPH,Gust SpeedMPH,PrecipitationIn,Events,Conditions,WindDirDegrees,DateUTC
12:53 AM,32.0,21.9,66,29.99,10.0,ESE,4.6,-,N/A,,Clear,120,2013-02-26 05:53:00
1:53 AM,34.0,21.9,61,29.96,10.0,East,8.1,-,N/A,,Clear,100,2013-02-26 06:53:00
2:53 AM,33.1,21.9,64,29.92,10.0,ESE,5.8,-,N/A,,Clear,110,2013-02-26 07:53:00
3:53 AM,33.1,21.9,64,29.88,10.0,ESE,3.5,-,N/A,,Clear,110,2013-02-26 08:53:00
4:53 AM,35.1,21.0,57,29.86,10.0,East,9.2,-,N/A,,Clear,100,2013-02-26 09:53:00
5:53 AM,35.1,21.9,59,29.83,10.0,East,8.1,-,N/A,,Mostly Cloudy,90,2013-02-26 10:53:00
6:53 AM,37.0,21.9,54,29.81,10.0,ESE,11.5,-,N/A,,Overcast,110,2013-02-26 11:53:00
7:53 AM,37.0,24.1,59,29.79,9.0,East,6.9,-,N/A,,Overcast,100,2013-02-26 12:53:00
8:53 AM,34.0,28.9,82,29.78,5.0,East,8.1,-,0.07,Rain,Light Rain,100,2013-02-26 13:53:00
9:53 AM,36.0,30.9,82,29.73,10.0,East,11.5,-,0.00,,Scattered Clouds,100,2013-02-26 14:53:00
10:53 AM,37.9,32.0,79,29.68,6.0,ESE,16.1,26.5,0.00,Rain,Light Rain,110,2013-02-26 15:53:00
11:32 AM,37.4,33.8,87,29.63,2.5,East,13.8,23.0,0.04,Rain,Rain,100,2013-02-26 16:32:00
11:46 AM,37.4,35.6,93,29.63,6.0,ESE,18.4,26.5,0.05,Rain,Light Rain,110,2013-02-26 16:46:00
11:53 AM,37.9,34.0,86,29.63,10.0,East,17.3,25.3,0.05,,Overcast,100,2013-02-26 16:53:00
12:22 PM,39.2,35.6,87,29.60,10.0,ESE,18.4,-,N/A,,Overcast,110,2013-02-26 17:22:00
12:49 PM,39.2,37.4,93,29.58,2.5,ESE,18.4,27.6,0.02,Rain,Rain,120,2013-02-26 17:49:00
12:53 PM,39.9,37.9,93,29.60,3.0,ESE,13.8,27.6,0.02,Rain,Rain,120,2013-02-26 17:53:00
1:26 PM,41.0,39.2,93,29.59,2.0,SE,16.1,19.6,0.05,Rain,Rain,140,2013-02-26 18:26:00
1:33 PM,41.0,39.2,93,29.58,1.2,SE,10.4,19.6,0.09,Rain,Heavy Rain,130,2013-02-26 18:33:00
1:40 PM,41.0,39.2,93,29.57,2.5,ESE,12.7,19.6,0.11,Rain,Rain,120,2013-02-26 18:40:00
1:48 PM,41.0,39.2,93,29.56,8.0,ESE,11.5,21.9,0.11,Rain,Light Rain,120,2013-02-26 18:48:00
1:53 PM,41.0,39.0,93,29.57,6.0,ESE,16.1,21.9,0.11,Rain,Light Rain,120,2013-02-26 18:53:00
2:53 PM,42.1,39.0,89,29.55,10.0,SE,11.5,19.6,0.01,,Overcast,130,2013-02-26 19:53:00
3:42 PM,42.8,39.2,87,29.50,10.0,ESE,16.1,-,0.02,Rain,Light Rain,120,2013-02-26 20:42:00
3:53 PM,43.0,39.9,89,29.51,9.0,ESE,12.7,19.6,0.02,Rain,Light Rain,120,2013-02-26 20:53:00
4:16 PM,42.8,39.2,87,29.50,9.0,SE,12.7,18.4,0.00,Rain,Light Rain,140,2013-02-26 21:16:00
5:11 PM,42.8,39.2,87,29.49,2.5,ESE,12.7,-,0.02,Rain,Rain,110,2013-02-26 22:11:00
5:17 PM,42.8,39.2,87,29.49,4.0,ESE,11.5,-,0.03,Rain,Light Rain,110,2013-02-26 22:17:00
5:24 PM,42.8,39.2,87,29.49,6.0,ESE,16.1,19.6,0.03,Rain,Light Rain,110,2013-02-26 22:24:00
5:53 PM,42.1,39.0,89,29.49,5.0,ESE,9.2,20.7,0.04,Rain,Rain,120,2013-02-26 22:53:00
6:41 PM,41.0,37.4,87,29.48,9.0,ESE,11.5,-,0.02,Rain,Light Rain,120,2013-02-26 23:41:00
6:53 PM,41.0,39.0,93,29.51,5.0,SE,13.8,18.4,0.03,Rain,Light Rain,130,2013-02-26 23:53:00
7:53 PM,41.0,39.9,96,29.51,10.0,SE,6.9,-,0.06,Rain,Light Rain,140,2013-02-27 00:53:00
8:18 PM,42.8,39.2,87,29.49,10.0,SE,10.4,-,0.00,Rain,Light Rain,140,2013-02-27 01:18:00
8:53 PM,42.1,39.9,92,29.51,6.0,South,5.8,-,0.00,Rain,Light Rain,170,2013-02-27 01:53:00
9:20 PM,42.8,39.2,87,29.50,9.0,South,5.8,-,0.01,,Overcast,170,2013-02-27 02:20:00
9:37 PM,42.8,41.0,93,29.50,10.0,South,8.1,-,0.01,Rain,Light Rain,180,2013-02-27 02:37:00
9:53 PM,44.1,41.0,89,29.51,10.0,SSW,5.8,-,0.01,,Overcast,200,2013-02-27 02:53:00
10:53 PM,44.1,41.0,89,29.52,10.0,SSW,8.1,-,0.00,,Overcast,200,2013-02-27 03:53:00
11:53 PM,44.1,39.9,85,29.52,10.0,WSW,9.2,-,0.00,Rain,Light Rain,240,2013-02-27 04:53:00